Regional Weather Roundup
Issued by NWS

Home | Current Version | Previous Version | Graphics & Text | Print | Product List | Glossary On
Versions: 1 2 3 4 5 6 7 8 9 10 11 12 13 14 15 16 17 18 19 20 21 22 23 24 25 26 27 28 29 30 31 32 33 34 35 36 37 38 39 40 41 42 43 44 45 46 47 48 49 50
000
ASUS45 KBOU 272307
RWRCO

WEATHER ROUNDUP FOR COLORADO
NATIONAL WEATHER SERVICE DENVER/BOULDER CO
400 PM MST TUE JAN 27 2015

NOTE: "FAIR" INDICATES FEW OR NO CLOUDS BELOW 12000 FEET WITH NO
SIGNIFICANT WEATHER AND/OR OBSTRUCTIONS TO VISIBILITY.

COZ001>005-013-030-031-280000-
...NORTHWEST COLORADO...

CITY           SKY/WX    TMP DP  RH WIND       PRES   REMARKS
CRAIG          CLOUDY    40  27  59 CALM      30.22S
HAYDEN         CLOUDY    37  21  52 SW5       30.22R
MEEKER         CLOUDY    43  28  55 CALM      30.22S
MOUNT WERNER   NOT AVBL
STEAMBOAT SPGS SUNNY     40  24  51 CALM      30.22R
WALDEN         PTSUNNY   46  25  42 N3        30.23S
$$

COZ006>008-011-280000-
...WEST CENTRAL VALLEYS...

CITY           SKY/WX    TMP DP  RH WIND       PRES   REMARKS
GRAND JUNCTION PTSUNNY   51  27  39 NW8       30.24F
MONTROSE       CLOUDY    51  25  36 N10       30.25S
EAGLE          MOSUNNY   46  21  36 CALM      30.23F
RIFLE          CLOUDY    51  25  36 SW13      30.22R
DELTA          CLOUDY    56  27  32 W6        30.22S
NUCLA          PTSUNNY   52  30  43 NW7       30.29F
$$

COZ017>023-064>068-280000-
...SOUTHWEST COLORADO...

CITY           SKY/WX    TMP DP  RH WIND       PRES   REMARKS
DURANGO        PTSUNNY   50  25  37 CALM      30.29F
CORTEZ         SUNNY     54  33  45 CALM      30.27F
PAGOSA SPRINGS CLOUDY    48  24  39 SW7       30.31S
TELLURIDE      CLOUDY    42  25  50 W3        30.35S
WOLF CREEK PAS NOT AVBL
$$

COZ009-010-012-014-032>034-037-058>063-280000-
...CENTRAL COLORADO...

CITY           SKY/WX    TMP DP  RH WIND       PRES   REMARKS
ASPEN          SUNNY     47  22  37 NW5       30.23S
BUENA VISTA    SUNNY     54  18  24 SE6       30.21F
COPPER MTN     SUNNY     41   9  26 W16       30.38F
BERTHOUD PASS  FAIR      32  27  80 MISG      30.42F
COTTONWOOD PAS SUNNY     52  12  20 CALM      30.29F
GUNNISON       SUNNY     25  16  68 E5        30.33F WCI  19
KREMMLING      SUNNY     30  19  64 CALM      30.29S
LEADVILLE      SUNNY     46  12  25 NW10      30.28S
MONARCH PASS   SUNNY     37  10  32 W24       30.49F
SALIDA         SUNNY     56  17  21 SW10      30.27S
SUNLIGHT       CLOUDY    37  23  56 CALM      30.37S
WILKERSON PASS SUNNY     43  14  31 SW6       30.38F
$$

COZ069>075-280000-
...SAN LUIS VALLEY/SANGRE DE CRISTO MOUNTAINS...

CITY           SKY/WX    TMP DP  RH WIND       PRES   REMARKS
ALAMOSA        SUNNY     52  21  29 SE3       30.25F
LA VETA PASS   NOT AVBL
SAGUACHE       SUNNY     39  25  56 CALM      30.29F
$$

COZ035-036-038>040-280000-
...NORTHERN COLORADO FRONT RANGE...

CITY           SKY/WX    TMP DP  RH WIND       PRES   REMARKS
DENVER INTL AP MOSUNNY   66  31  27 NE12      30.02F
DMNS CITY PARK   N/A     70  18  13 NE8G15    30.01S
AURORA         MOSUNNY   67  33  28 NE12      30.03F
FRONT RANGE AP MOSUNNY   66  37  34 NE10      30.04F
ERIE MUNI ARPT SUNNY     69  22  17 N6        30.02S
BOULDER MUN AP SUNNY     68  21  17 N6        30.02F
CENTENNIAL     MOSUNNY   70  14  11 S10       30.03F
BROOMFIELD     MOSUNNY   72  21  15 N6        30.05S
FORT COLLINS   MOSUNNY   68  28  22 SE6       30.03F
LONGMONT       MOSUNNY   72  19  13 CALM      30.04S
$$

COZ041-046-047-076>085-087-088-280000-
...PIKES PEAK/PALMER DIVIDE AND SOUTHERN FOOTHILLS...

CITY           SKY/WX    TMP DP  RH WIND       PRES   REMARKS
COLO. SPRINGS  MOSUNNY   66  22  18 S13       30.09F
A. F. ACADEMY  SUNNY     64  23  21 S8        30.10S
ELLICOTT       SUNNY    N/A N/A N/A S10       30.09F
FALCON         SUNNY     62  23  22 S8        30.14S
FORT CARSON    SUNNY     68  22  17 S9        30.05F
LIMON          MOSUNNY   67  17  14 S9        30.04F
MONUMENT HILL  SUNNY     59  27  29 S8        30.12F
TRINIDAD       SUNNY     67  27  22 NE5       30.11S
$$

COZ042>045-048>051-090-091-280000-
...NORTHEAST COLORADO...

CITY           SKY/WX    TMP DP  RH WIND       PRES   REMARKS
GREELEY ARPT   MOSUNNY   68  30  24 SE7       29.99F
AKRON          PTSUNNY   64  31  28 E9        30.01F
BURLINGTON     PTSUNNY   69  30  23 SW10      30.02F
WRAY           CLEAR     76  24  14 CALM      29.98F
STERLING       MOCLDY    72  34  25 CALM      29.97F
HOLYOKE        CLEAR     72  27  18 N6        29.98F
FORT MORGAN    PTSUNNY   62  32  32 CALM      30.00F
$$

COZ086-089-092>099-280000-
...SOUTHEAST COLORADO...

CITY           SKY/WX    TMP DP  RH WIND       PRES   REMARKS
PUEBLO         SUNNY     71  18  13 SE7       30.02F
LA JUNTA       MOSUNNY   72  32  23 CALM      30.01F
LAMAR          MOSUNNY   69  34  27 E5        29.99F
SPRINGFIELD    NOT AVBL
$$



USA.gov is the U.S. government's official web portal to all federal, state and local government web resources and services.